QTR189 LSZH-OBBI

Flight info

Callsign QTR189
Flight time N/A
Altitude 37000
Route LSZH/28 N0481F370 DEGE2X DEGES Z2 OSDOV M738 MADEB N606 ELMEM DCT GIMIX DCT ROLBA DCT DIMSI DCT ELGEB DCT BELGI DCT RASLI/N0493F390 DCT KFA H732 LADNA LADNA1 OBBI/30R
Aircraft A35K/H-SDE2E3GHIJ3J4J5LM1ORWXY/LB1D1

Departure

Time 2026-04-26 08:33
Airport Zürich Airport (LSZH)

Arrival

Time N/A
Airport Bahrain International Airport (OBBI)
Time Latitude Longitude Altitude Speed Heading
2026-04-26 08:21 47.46178 8.55241 1401 ft 0 kts 184°
2026-04-26 08:23 47.46187 8.55242 1411 ft 2 kts 185°
2026-04-26 08:23 47.46204 8.55244 1407 ft 2 kts 189°
2026-04-26 08:24 47.46220 8.55248 1411 ft 2 kts 191°
2026-04-26 08:24 47.46237 8.55254 1410 ft 2 kts 195°
2026-04-26 08:24 47.46252 8.55261 1410 ft 2 kts 207°
2026-04-26 08:24 47.46266 8.55276 1410 ft 2 kts 239°
2026-04-26 08:25 47.46271 8.55299 1410 ft 2 kts 272°
2026-04-26 08:25 47.46270 8.55313 1410 ft 1 kts 276°
2026-04-26 08:27 47.46271 8.55301 1410 ft 4 kts 276°
2026-04-26 08:27 47.46277 8.55219 1405 ft 10 kts 276°
2026-04-26 08:27 47.46285 8.55106 1404 ft 13 kts 276°
2026-04-26 08:27 47.46294 8.54969 1403 ft 10 kts 275°
2026-04-26 08:28 47.46300 8.54856 1397 ft 12 kts 275°
2026-04-26 08:28 47.46259 8.54788 1402 ft 7 kts 176°
2026-04-26 08:28 47.46211 8.54810 1401 ft 7 kts 155°
2026-04-26 08:28 47.46153 8.54849 1406 ft 12 kts 155°
2026-04-26 08:29 47.46062 8.54912 1400 ft 15 kts 155°
2026-04-26 08:29 47.45969 8.54976 1406 ft 14 kts 154°
2026-04-26 08:29 47.45912 8.55073 1411 ft 11 kts 112°
2026-04-26 08:29 47.45900 8.55174 1405 ft 10 kts 95°
2026-04-26 08:30 47.45891 8.55305 1413 ft 15 kts 95°
2026-04-26 08:30 47.45877 8.55482 1416 ft 20 kts 96°
2026-04-26 08:30 47.45862 8.55692 1418 ft 21 kts 96°
2026-04-26 08:30 47.45846 8.55897 1417 ft 20 kts 96°
2026-04-26 08:31 47.45832 8.56093 1423 ft 18 kts 96°
2026-04-26 08:31 47.45818 8.56275 1426 ft 17 kts 96°
2026-04-26 08:31 47.45806 8.56447 1424 ft 16 kts 95°
2026-04-26 08:31 47.45796 8.56624 1425 ft 18 kts 94°
2026-04-26 08:32 47.45785 8.56821 1427 ft 20 kts 96°
2026-04-26 08:32 47.45776 8.56946 1430 ft 11 kts 98°
2026-04-26 08:32 47.45721 8.57024 1431 ft 11 kts 165°
2026-04-26 08:32 47.45660 8.56991 1430 ft 7 kts 256°
2026-04-26 08:33 47.45671 8.56876 1428 ft 23 kts 276°
2026-04-26 08:33 47.45716 8.56218 1424 ft 107 kts 275°
2026-04-26 08:33 47.45831 8.54717 1446 ft 177 kts 279°
2026-04-26 08:33 47.45921 8.53527 2081 ft 173 kts 279°
2026-04-26 08:34 47.46079 8.51194 3400 ft 179 kts 277°
2026-04-26 08:34 47.46149 8.49921 3836 ft 191 kts 276°
2026-04-26 08:34 47.45829 8.47230 4377 ft 212 kts 238°
2026-04-26 08:34 47.45205 8.46083 4646 ft 219 kts 221°
2026-04-26 08:35 47.44138 8.44470 5243 ft 226 kts 233°
2026-04-26 08:35 47.43346 8.41557 6176 ft 231 kts 254°
2026-04-26 08:35 47.43060 8.40040 6710 ft 231 kts 254°
2026-04-26 08:35 47.42460 8.37844 7427 ft 233 kts 236°
2026-04-26 08:36 47.41224 8.36279 8107 ft 236 kts 201°
2026-04-26 08:36 47.39597 8.36006 8764 ft 240 kts 168°
2026-04-26 08:36 47.38113 8.37088 9398 ft 242 kts 134°
2026-04-26 08:36 47.37266 8.39172 10049 ft 243 kts 101°
2026-04-26 08:37 47.37318 8.41640 10660 ft 242 kts 68°
2026-04-26 08:37 47.38270 8.43664 11268 ft 243 kts 36°
2026-04-26 08:37 47.39759 8.44815 11938 ft 244 kts 21°
2026-04-26 08:37 47.41260 8.45985 12565 ft 251 kts 36°
2026-04-26 08:38 47.42457 8.47887 13170 ft 260 kts 52°
2026-04-26 08:38 47.43561 8.50121 13539 ft 277 kts 52°
2026-04-26 08:38 47.44723 8.52509 13910 ft 295 kts 53°
2026-04-26 08:38 47.45673 8.55273 14229 ft 314 kts 73°
2026-04-26 08:39 47.45944 8.58560 14618 ft 329 kts 87°
2026-04-26 08:39 47.46031 8.62022 15013 ft 344 kts 86°
2026-04-26 08:39 47.46139 8.65626 15407 ft 358 kts 86°
2026-04-26 08:39 47.46266 8.69333 15797 ft 370 kts 86°
2026-04-26 08:40 47.46406 8.73187 16185 ft 383 kts 86°
2026-04-26 08:40 47.46646 8.80328 16938 ft 401 kts 88°
2026-04-26 08:40 47.45776 8.88561 18239 ft 411 kts 104°
2026-04-26 08:40 47.44564 8.96901 19369 ft 421 kts 101°
2026-04-26 08:41 47.43394 9.05390 20532 ft 428 kts 101°
2026-04-26 08:41 47.42148 9.14040 21765 ft 436 kts 102°
2026-04-26 08:41 47.41686 9.22980 22941 ft 444 kts 82°
2026-04-26 08:41 47.43065 9.32202 24056 ft 453 kts 76°
2026-04-26 08:42 47.44487 9.41384 25043 ft 461 kts 77°
2026-04-26 08:42 47.45894 9.50762 26048 ft 469 kts 77°
2026-04-26 08:42 47.47012 9.60276 27001 ft 477 kts 86°
2026-04-26 08:42 47.46764 9.69948 27985 ft 483 kts 94°
2026-04-26 08:43 47.46208 9.80086 28954 ft 489 kts 95°
2026-04-26 08:43 47.45639 9.90010 29792 ft 497 kts 95°
2026-04-26 08:43 47.45051 10.00287 30563 ft 503 kts 95°
2026-04-26 08:43 47.43732 10.10386 31442 ft 503 kts 109°
2026-04-26 08:44 47.42879 10.13509 31742 ft 502 kts 116°
2026-04-26 08:44 47.40619 10.19075 32237 ft 501 kts 128°
2026-04-26 08:44 47.35542 10.26125 33078 ft 497 kts 148°
2026-04-26 08:45 47.30488 10.32804 33917 ft 498 kts 126°
2026-04-26 08:45 47.27578 10.42091 34602 ft 499 kts 102°
2026-04-26 08:45 47.27465 10.52094 35191 ft 498 kts 77°
2026-04-26 08:45 47.29736 10.61724 35738 ft 497 kts 72°
2026-04-26 08:46 47.30136 10.71802 36245 ft 499 kts 97°
2026-04-26 08:46 47.28251 10.81585 36702 ft 499 kts 116°
2026-04-26 08:46 47.24280 10.89977 37202 ft 495 kts 137°
2026-04-26 08:46 47.19781 10.97569 37251 ft 503 kts 120°
2026-04-26 08:47 47.17132 11.07144 37234 ft 504 kts 109°
2026-04-26 08:47 47.14896 11.16861 37241 ft 505 kts 109°
2026-04-26 08:47 47.10356 11.36287 37239 ft 505 kts 109°
2026-04-26 08:48 47.07528 11.48564 37226 ft 507 kts 109°
2026-04-26 08:48 47.04808 11.59976 37226 ft 507 kts 110°
2026-04-26 08:49 47.00134 11.79513 37203 ft 505 kts 110°
2026-04-26 08:49 46.95478 11.98937 37218 ft 506 kts 110°
2026-04-26 08:50 46.90805 12.18251 37224 ft 505 kts 110°
2026-04-26 08:50 46.86086 12.37590 37224 ft 505 kts 110°
2026-04-26 08:51 46.78929 12.66603 37175 ft 505 kts 110°
2026-04-26 08:52 46.74151 12.85765 37139 ft 505 kts 110°
2026-04-26 08:52 46.69323 13.04964 37132 ft 506 kts 110°
2026-04-26 08:53 46.64469 13.24103 37125 ft 506 kts 110°
2026-04-26 08:53 46.59547 13.43360 37128 ft 506 kts 110°
2026-04-26 08:54 46.54593 13.62571 37133 ft 506 kts 110°
2026-04-26 08:54 46.48997 13.81063 37136 ft 505 kts 116°
2026-04-26 08:55 46.42733 13.99463 37137 ft 505 kts 116°
2026-04-26 08:55 46.36501 14.17596 37133 ft 504 kts 116°
2026-04-26 08:56 46.30215 14.35750 37130 ft 504 kts 116°
2026-04-26 08:56 46.23898 14.53869 37130 ft 504 kts 116°
2026-04-26 08:57 46.17643 14.71689 37130 ft 504 kts 116°
2026-04-26 08:57 46.11213 14.89771 37131 ft 500 kts 118°
2026-04-26 08:58 46.04895 15.07557 37055 ft 497 kts 115°
2026-04-26 08:58 45.98610 15.25013 37106 ft 491 kts 115°
2026-04-26 08:59 45.94674 15.38579 36895 ft 493 kts 92°
2026-04-26 08:59 45.93116 15.48132 37135 ft 500 kts 117°
2026-04-26 08:59 45.88974 15.56050 37127 ft 509 kts 131°
2026-04-26 09:00 45.81285 15.72874 37129 ft 506 kts 115°
2026-04-26 09:00 45.75248 15.91357 37129 ft 506 kts 115°
2026-04-26 09:01 45.69158 16.09298 37129 ft 506 kts 115°
2026-04-26 09:01 45.62890 16.27517 37133 ft 506 kts 115°
2026-04-26 09:02 45.56706 16.45392 37140 ft 506 kts 116°
2026-04-26 09:02 45.50474 16.63293 37142 ft 506 kts 116°
2026-04-26 09:03 45.44176 16.81263 37138 ft 505 kts 116°
2026-04-26 09:03 45.37869 16.99129 37127 ft 505 kts 116°
2026-04-26 09:04 45.31534 17.16959 37123 ft 505 kts 116°
2026-04-26 09:04 45.25149 17.34814 37123 ft 506 kts 116°
2026-04-26 09:05 45.18765 17.52545 37122 ft 506 kts 117°
2026-04-26 09:05 45.12311 17.70357 37118 ft 506 kts 117°
2026-04-26 09:06 45.05838 17.88104 37112 ft 507 kts 117°
2026-04-26 09:06 44.99380 18.05692 37119 ft 507 kts 117°
2026-04-26 09:07 44.92873 18.23308 37118 ft 508 kts 117°
2026-04-26 09:07 44.86278 18.41044 37114 ft 508 kts 117°
2026-04-26 09:08 44.79697 18.58630 37121 ft 508 kts 117°
2026-04-26 09:08 44.73039 18.76305 37125 ft 509 kts 117°
2026-04-26 09:09 44.66397 18.93829 37125 ft 509 kts 118°
2026-04-26 09:09 44.59732 19.11305 37127 ft 509 kts 118°
2026-04-26 09:10 44.52823 19.28691 37124 ft 510 kts 121°
2026-04-26 09:10 44.45493 19.45770 37118 ft 510 kts 121°
2026-04-26 09:11 44.38271 19.62815 37115 ft 511 kts 121°
2026-04-26 09:11 44.31010 19.79858 37107 ft 511 kts 121°
2026-04-26 09:12 44.23699 19.96912 37103 ft 512 kts 121°
2026-04-26 09:12 44.16355 20.13944 37088 ft 512 kts 121°
2026-04-26 09:13 44.07866 20.29931 37079 ft 512 kts 129°
2026-04-26 09:13 43.98957 20.45180 37080 ft 513 kts 129°
2026-04-26 09:14 43.89898 20.60636 37075 ft 514 kts 129°
2026-04-26 09:14 43.80829 20.76022 37075 ft 515 kts 130°
2026-04-26 09:15 43.71768 20.91312 37077 ft 515 kts 130°
2026-04-26 09:15 43.62651 21.06619 37069 ft 516 kts 130°
2026-04-26 09:16 43.53496 21.21906 37067 ft 516 kts 130°
2026-04-26 09:16 43.44400 21.37016 37066 ft 517 kts 130°
2026-04-26 09:17 43.35136 21.52325 37071 ft 517 kts 130°
2026-04-26 09:17 43.25973 21.67389 37075 ft 517 kts 131°
2026-04-26 09:18 43.16728 21.82508 37072 ft 518 kts 131°
2026-04-26 09:18 43.07398 21.97687 37066 ft 519 kts 131°
2026-04-26 09:19 42.99634 22.10260 37072 ft 520 kts 131°
2026-04-26 09:19 42.90307 22.25293 37072 ft 521 kts 131°
2026-04-26 09:20 42.80890 22.40390 37065 ft 520 kts 131°
2026-04-26 09:20 42.71534 22.55315 37069 ft 520 kts 132°
2026-04-26 09:21 42.62098 22.70289 37064 ft 520 kts 132°
2026-04-26 09:21 42.52657 22.85196 37064 ft 520 kts 132°
2026-04-26 09:22 42.43242 22.99989 37064 ft 520 kts 132°
2026-04-26 09:22 42.33709 23.14889 37068 ft 520 kts 132°
2026-04-26 09:23 42.24254 23.29595 37068 ft 519 kts 132°
2026-04-26 09:23 42.14753 23.44296 37062 ft 519 kts 133°
2026-04-26 09:24 42.05276 23.58890 37048 ft 519 kts 132°
2026-04-26 09:24 41.95746 23.73492 37040 ft 518 kts 132°
2026-04-26 09:25 41.86309 23.87882 37033 ft 517 kts 132°
2026-04-26 09:25 41.76781 24.02341 37026 ft 516 kts 132°
2026-04-26 09:26 41.67299 24.16660 37018 ft 515 kts 132°
2026-04-26 09:26 41.57782 24.30963 37019 ft 514 kts 132°
2026-04-26 09:27 41.48264 24.45199 37016 ft 513 kts 132°
2026-04-26 09:27 41.38729 24.59389 37015 ft 513 kts 132°
2026-04-26 09:28 41.29160 24.73565 37010 ft 512 kts 132°
2026-04-26 09:28 41.19941 24.87157 37010 ft 512 kts 132°
2026-04-26 09:29 41.10398 25.01165 37019 ft 511 kts 132°
2026-04-26 09:29 41.00866 25.15088 37015 ft 510 kts 132°
2026-04-26 09:30 40.91303 25.28996 37018 ft 509 kts 132°
2026-04-26 09:30 40.81725 25.42860 37022 ft 509 kts 132°
2026-04-26 09:31 40.72216 25.56560 37021 ft 508 kts 131°